Date,TemperatureHighF,TemperatureAvgF,TemperatureLowF,DewpointHighF,DewpointAvgF,DewpointLowF,HumidityHigh,HumidityAvg,HumidityLow,PressureMaxIn,PressureMinIn,WindSpeedMaxMPH,WindSpeedAvgMPH,GustSpeedMaxMPH,PrecipitationSumIn
2013-9-1,83.7,59.4,62.0,71.0,32.0,-99.9,100,71,62,29.83,29.68,10,-95,0,0.30
2013-9-2,68.1,57.9,57.9,62.0,22.4,-99.9,96,62,64,30.02,29.81,11,-58,0,0.00
2013-9-3,74.2,56.5,11.1,56.0,20.2,-99.9,98,59,46,30.11,30.02,153,-45,0,0.00
2013-9-4,81.4,64.4,55.8,64.0,45.1,-99.9,95,71,55,30.15,30.05,11,-35,0,0.00
2013-9-5,68.8,61.1,53.0,62.0,38.1,-99.9,97,66,49,30.31,30.15,12,-22,0,0.00
2013-9-6,84.5,66.9,48.0,67.0,37.2,-99.9,100,64,50,30.26,29.98,9,-22,0,0.00
2013-9-7,81.8,66.7,68.1,73.0,43.0,-99.9,100,70,62,30.01,29.88,16,-59,0,0.43
2013-9-8,71.0,53.4,63.9,68.0,8.3,-99.9,100,59,75,30.11,29.97,11,-146,0,0.00
2013-9-9,87.0,68.8,65.4,77.0,37.8,-99.9,100,68,69,29.99,29.76,15,-103,0,0.03
2013-9-10,93.6,78.9,77.0,73.0,49.6,-99.9,75,51,39,29.91,29.77,20,-42,0,0.00
2013-9-11,80.3,66.5,67.6,71.0,43.5,-99.9,100,69,60,30.07,29.92,17,-97,0,0.11
2013-9-12,73.7,63.0,56.3,67.0,40.2,-99.9,100,72,51,30.14,29.96,16,-9,0,0.03
2013-9-13,63.1,51.8,46.7,47.0,23.2,-99.9,91,61,46,30.24,30.14,13,-33,0,0.00
2013-9-14,70.1,53.5,41.9,56.0,30.5,-99.9,100,66,43,30.20,30.01,11,-46,0,0.00
2013-9-15,60.3,54.5,53.8,58.0,35.8,-99.9,100,79,66,30.25,30.01,11,-22,0,0.51
2013-9-16,60.8,52.2,44.0,48.0,40.4,-99.9,89,73,55,30.42,30.27,13,5,0,0.00
2013-9-17,67.0,52.5,39.9,56.0,26.1,-99.9,100,71,59,30.38,30.13,11,-23,0,0.00
2013-9-18,78.6,64.1,55.1,68.0,45.9,-99.9,99,77,66,30.12,29.89,16,-22,0,0.11
2013-9-19,81.9,67.2,67.5,77.0,48.1,-99.9,100,81,76,29.91,29.72,16,-47,0,0.55
2013-9-20,73.0,62.1,58.8,68.0,37.8,-99.9,100,74,67,29.80,29.68,16,-66,0,0.02
2013-9-21,58.5,54.6,47.4,56.0,38.8,-99.9,95,75,63,29.98,29.80,13,5,0,0.00
2013-9-22,61.1,50.4,42.6,47.0,38.5,-99.9,92,75,52,30.11,29.98,7,-23,0,0.00
2013-9-23,62.3,45.7,-73.8,52.0,34.8,-99.9,100,80,61,30.31,30.08,10,-50,0,0.00
2013-9-24,66.3,49.1,43.3,60.0,30.7,-99.9,100,76,59,30.11,30.00,11,-60,0,0.01
2013-9-25,66.3,52.8,47.2,61.0,36.6,-99.9,100,78,63,30.02,29.91,8,-23,0,0.01
2013-9-26,73.0,57.9,45.8,66.0,46.4,-99.9,100,81,50,30.12,29.94,10,2,0,0.01
2013-9-27,77.4,58.0,45.6,60.0,47.8,-99.9,100,77,44,30.19,30.09,14,-10,0,0.01
2013-9-28,79.9,62.7,48.9,68.0,46.0,-99.9,100,73,52,30.09,29.84,21,-20,0,0.25
2013-9-29,70.1,57.7,48.0,56.0,28.9,-99.9,100,67,27,30.07,29.94,10,2,0,0.01
2013-9-30,71.6,56.4,42.9,55.0,43.9,-99.9,100,73,43,30.03,29.84,16,-11,0,0.00